| time (UTC) | temp F | wind direction | speed knots | gust knots | rain 1hr in | rain 24hr in | rain mn in | humidity % | barometer mb |
| 20260505182521 | 70 | 169 | 5.2 | 8.7 | 0.00 | 0.00 | 0.00 | 51 | 1005.4 |
| 20260505181620 | 70 | 201 | 4.3 | 7.0 | 0.00 | 0.00 | 0.00 | 51 | 1005.7 |
| 20260505180622 | 70 | 196 | 1.7 | 6.1 | 0.00 | 0.00 | 0.00 | 49 | 1005.9 |
| 20260505175621 | 71 | 188 | 4.3 | 7.8 | 0.00 | 0.00 | 0.00 | 50 | 1006.0 |
| 20260505174720 | 70 | 183 | 5.2 | 7.8 | 0.00 | 0.00 | 0.00 | 50 | 1006.0 |
| 20260505173721 | 71 | 202 | 7.8 | 13.0 | 0.00 | 0.00 | 0.00 | 49 | 1006.1 |
| 20260505172720 | 70 | 177 | 4.3 | 6.1 | 0.00 | 0.00 | 0.00 | 51 | 1006.0 |
| 20260505170720 | 70 | 187 | 6.1 | 10.4 | 0.00 | 0.00 | 0.00 | 51 | 1006.5 |
| 20260505165721 | 70 | 156 | 3.5 | 7.0 | 0.00 | 0.00 | 0.00 | 51 | 1006.5 |
| 20260505164721 | 70 | 176 | 5.2 | 7.8 | 0.00 | 0.00 | 0.00 | 50 | 1006.6 |
| 20260505163820 | 69 | 159 | 4.3 | 7.0 | 0.00 | 0.00 | 0.00 | 51 | 1006.8 |
| 20260505162821 | 69 | 186 | 5.2 | 7.8 | 0.00 | 0.00 | 0.00 | 52 | 1007.2 |
| 20260505161821 | 68 | 197 | 5.2 | 7.8 | 0.00 | 0.00 | 0.00 | 51 | 1007.2 |
| 20260505152823 | 68 | 225 | 7.0 | 10.4 | 0.00 | 0.00 | 0.00 | 51 | 1007.8 |
| 20260505151920 | 68 | 187 | 7.0 | 9.6 | 0.00 | 0.00 | 0.00 | 51 | 1007.7 |
| 20260505150923 | 67 | 197 | 7.0 | 10.4 | 0.00 | 0.00 | 0.00 | 50 | 1007.6 |
| 20260505140220 | 66 | 189 | 3.5 | 5.2 | 0.00 | 0.00 | 0.00 | 52 | 1007.9 |
| 20260505124420 | 61 | 168 | 4.3 | 7.8 | 0.00 | 0.00 | 0.00 | 60 | 1008.6 |
| 20260505122420 | 59 | 183 | 4.3 | 10.4 | 0.00 | 0.00 | 0.00 | 63 | 1008.7 |
| 20260505121519 | 58 | 193 | 3.5 | 4.3 | 0.00 | 0.00 | 0.00 | 65 | 1008.8 |
| 20260505120520 | 57 | 152 | 3.5 | 7.0 | 0.00 | 0.00 | 0.00 | 67 | 1008.9 |
| 20260505115521 | 56 | 191 | 3.5 | 6.1 | 0.00 | 0.00 | 0.00 | 68 | 1009.2 |
| 20260505113520 | 55 | 168 | 4.3 | 7.8 | 0.00 | 0.00 | 0.00 | 72 | 1009.1 |
| 20260505112522 | 53 | 186 | 1.7 | 3.5 | 0.00 | 0.00 | 0.00 | 76 | 1008.8 |
| 20260505111521 | 51 | 170 | 3.5 | 4.3 | 0.00 | 0.00 | 0.00 | 81 | 1008.8 |
| 20260505110619 | 50 | 178 | 3.5 | 5.2 | 0.00 | 0.00 | 0.00 | 83 | 1008.7 |
| 20260505101720 | 45 | 166 | 2.6 | 3.5 | 0.00 | 0.00 | 0.00 | 95 | 1008.7 |
| 20260505095722 | 43 | 157 | 2.6 | 2.6 | 0.00 | 0.00 | 0.00 | 95 | 1008.5 |
| 20260505094722 | 42 | 142 | 2.6 | 3.5 | 0.00 | 0.00 | 0.00 | 96 | 1008.4 |
| 20260505093738 | 42 | 135 | 0.9 | 0.9 | 0.00 | 0.00 | 0.00 | 96 | 1008.3 |
| 20260505092719 | 42 | 135 | 0.0 | 0.0 | 0.00 | 0.00 | 0.00 | 96 | 1008.2 |
| 20260505090722 | 41 | 135 | 0.0 | 0.9 | 0.00 | 0.00 | 0.00 | 96 | 1008.3 |
| 20260505085820 | 41 | 135 | 0.0 | 0.9 | 0.00 | 0.00 | 0.00 | 96 | 1008.4 |
| 20260505083822 | 41 | 135 | 0.9 | 1.7 | 0.00 | 0.00 | 0.00 | 95 | 1008.5 |
| 20260505082820 | 40 | 135 | 0.0 | 1.7 | 0.00 | 0.00 | 0.00 | 96 | 1008.4 |
| 20260505081919 | 41 | 135 | 0.0 | 0.0 | 0.00 | 0.00 | 0.00 | 96 | 1008.5 |
| 20260505075920 | 41 | 135 | 0.0 | 0.9 | 0.00 | 0.00 | 0.00 | 96 | 1008.4 |
| 20260505074020 | 41 | 135 | 0.0 | 0.9 | 0.00 | 0.00 | 0.00 | 96 | 1008.6 |
| 20260505073020 | 41 | 135 | 0.0 | 0.0 | 0.00 | 0.00 | 0.00 | 96 | 1008.5 |
| 20260505072019 | 41 | 135 | 0.0 | 0.0 | 0.00 | 0.00 | 0.00 | 95 | 1008.5 |
| 20260505071020 | 41 | 135 | 0.0 | 0.0 | 0.00 | 0.00 | 0.00 | 95 | 1008.6 |
| 20260505070021 | 42 | 135 | 0.0 | 0.0 | 0.00 | 0.00 | 0.00 | 95 | 1008.6 |
| 20260505065019 | 42 | 135 | 0.0 | 0.0 | 0.00 | 0.00 | 0.00 | 95 | 1008.4 |
| 20260505064020 | 42 | 135 | 0.0 | 0.0 | 0.00 | 0.00 | 0.00 | 95 | 1008.7 |
| 20260505062121 | 43 | 135 | 0.0 | 0.0 | 0.00 | 0.00 | 0.00 | 94 | 1008.5 |
| 20260505060120 | 42 | 135 | 0.0 | 0.0 | 0.00 | 0.00 | 0.00 | 94 | 1008.4 |
| 20260505054218 | 43 | 135 | 0.0 | 0.0 | 0.00 | 0.00 | 0.00 | 94 | 1008.5 |
| 20260505053220 | 44 | 135 | 0.0 | 0.0 | 0.00 | 0.00 | 0.00 | 92 | 1008.6 |
| 20260505052220 | 44 | 135 | 0.0 | 0.0 | 0.00 | 0.00 | 0.00 | 92 | 1008.5 |
| 20260505051220 | 44 | 135 | 0.0 | 0.0 | 0.00 | 0.00 | 0.00 | 92 | 1008.3 |
| 20260505050220 | 44 | 135 | 0.0 | 0.0 | 0.00 | 0.00 | 0.00 | 91 | 1008.4 |
| 20260505041321 | 45 | 157 | 0.0 | 0.0 | 0.00 | 0.00 | 0.00 | 89 | 1008.3 |
| 20260505040419 | 45 | 157 | 0.0 | 0.0 | 0.00 | 0.00 | 0.00 | 88 | 1008.2 |
| 20260505035506 | 46 | 157 | 0.0 | 0.0 | 0.00 | 0.00 | 0.00 | 88 | 1008.3 |
| 20260505034605 | 46 | 157 | 0.0 | 0.0 | 0.00 | 0.00 | 0.00 | 88 | 1008.2 |
| 20260505034505 | 46 | 157 | 0.0 | 0.0 | 0.00 | 0.00 | 0.00 | 88 | 1008.3 |
| 20260505031604 | 48 | 157 | 0.0 | 0.0 | 0.00 | 0.00 | 0.00 | 84 | 1008.2 |
| 20260505030604 | 48 | 157 | 0.0 | 0.0 | 0.00 | 0.00 | 0.00 | 83 | 1008.2 |
| 20260505025605 | 48 | 157 | 0.0 | 0.9 | 0.00 | 0.00 | 0.00 | 84 | 1008.3 |
| 20260505024704 | 49 | 157 | 0.0 | 0.0 | 0.00 | 0.00 | 0.00 | 83 | 1008.7 |
| 20260505023707 | 49 | 157 | 0.0 | 0.0 | 0.00 | 0.00 | 0.00 | 83 | 1008.7 |
| 20260505022707 | 49 | 157 | 1.7 | 2.6 | 0.00 | 0.00 | 0.00 | 83 | 1008.5 |
| 20260505021704 | 49 | 157 | 0.0 | 0.0 | 0.00 | 0.00 | 0.00 | 82 | 1008.7 |
| 20260505020705 | 49 | 157 | 0.0 | 0.0 | 0.00 | 0.00 | 0.00 | 81 | 1008.5 |
| 20260505014803 | 50 | 157 | 0.0 | 0.0 | 0.00 | 0.00 | 0.00 | 81 | 1008.8 |
| 20260505013804 | 50 | 157 | 0.0 | 0.0 | 0.00 | 0.00 | 0.00 | 80 | 1008.6 |
| 20260505012904 | 50 | 157 | 0.0 | 1.7 | 0.00 | 0.00 | 0.00 | 79 | 1008.5 |
| 20260505011905 | 50 | 159 | 0.9 | 1.7 | 0.00 | 0.00 | 0.00 | 78 | 1008.2 |
| 20260505010907 | 51 | 337 | 0.0 | 0.0 | 0.00 | 0.00 | 0.00 | 76 | 1008.0 |
| 20260505005006 | 51 | 337 | 0.0 | 0.0 | 0.00 | 0.00 | 0.00 | 74 | 1008.0 |
| 20260505004104 | 51 | 337 | 0.0 | 0.0 | 0.00 | 0.00 | 0.00 | 72 | 1007.8 |
| 20260505003107 | 52 | 337 | 0.0 | 0.0 | 0.00 | 0.00 | 0.00 | 71 | 1007.6 |
| 20260505001105 | 53 | 337 | 0.0 | 0.0 | 0.00 | 0.00 | 0.00 | 68 | 1007.4 |
| 20260505000106 | 54 | 337 | 0.0 | 0.0 | 0.00 | 0.00 | 0.00 | 67 | 1007.4 |
| 20260504235106 | 55 | 337 | 0.0 | 0.0 | 0.00 | 0.00 | 0.00 | 64 | 1007.3 |
| 20260504233106 | 57 | 337 | 0.0 | 0.0 | 0.00 | 0.00 | 0.00 | 58 | 1007.1 |
| 20260504232105 | 58 | 337 | 0.0 | 0.0 | 0.00 | 0.00 | 0.00 | 56 | 1006.8 |
| 20260504231204 | 59 | 337 | 0.0 | 0.9 | 0.00 | 0.00 | 0.00 | 55 | 1006.8 |
| 20260504230304 | 59 | 338 | 0.9 | 3.5 | 0.00 | 0.00 | 0.00 | 54 | 1006.7 |
| 20260504225307 | 59 | 334 | 1.7 | 2.6 | 0.00 | 0.00 | 0.00 | 55 | 1006.5 |
| 20260504224305 | 59 | 21 | 1.7 | 3.5 | 0.00 | 0.00 | 0.00 | 55 | 1006.5 |
| 20260504223320 | 59 | 337 | 0.9 | 1.7 | 0.00 | 0.00 | 0.00 | 55 | 1006.4 |
| 20260504222305 | 60 | 343 | 0.0 | 2.6 | 0.00 | 0.00 | 0.00 | 55 | 1006.3 |
| 20260504220503 | 59 | 327 | 0.9 | 3.5 | 0.00 | 0.00 | 0.00 | 55 | 1006.3 |
| 20260504215505 | 59 | 337 | 0.9 | 1.7 | 0.00 | 0.00 | 0.00 | 54 | 1006.2 |
| 20260504214507 | 59 | 358 | 0.9 | 2.6 | 0.00 | 0.00 | 0.00 | 55 | 1006.1 |
| 20260504213504 | 59 | 336 | 4.3 | 7.0 | 0.00 | 0.00 | 0.00 | 54 | 1006.0 |
| 20260504211605 | 59 | 338 | 6.1 | 12.2 | 0.00 | 0.00 | 0.00 | 54 | 1006.0 |
| 20260504210604 | 60 | 340 | 4.3 | 8.7 | 0.00 | 0.00 | 0.00 | 54 | 1005.8 |
| 20260504205608 | 60 | 333 | 4.3 | 8.7 | 0.00 | 0.00 | 0.00 | 55 | 1005.7 |
| 20260504204605 | 60 | 20 | 4.3 | 7.0 | 0.00 | 0.00 | 0.00 | 55 | 1005.7 |
| 20260504203605 | 60 | 42 | 5.2 | 10.4 | 0.00 | 0.00 | 0.00 | 56 | 1005.7 |
| 20260504202605 | 59 | 50 | 3.5 | 6.1 | 0.00 | 0.00 | 0.00 | 57 | 1005.6 |
| 20260504200606 | 59 | 342 | 4.3 | 6.1 | 0.00 | 0.00 | 0.00 | 57 | 1005.7 |
| 20260504195605 | 59 | 11 | 3.5 | 7.0 | 0.00 | 0.00 | 0.00 | 55 | 1005.4 |
| 20260504194604 | 59 | 26 | 3.5 | 6.1 | 0.00 | 0.00 | 0.00 | 57 | 1005.6 |
| 20260504193606 | 59 | 348 | 5.2 | 10.4 | 0.00 | 0.00 | 0.00 | 55 | 1005.5 |
| 20260504192607 | 59 | 339 | 6.1 | 11.3 | 0.00 | 0.00 | 0.00 | 57 | 1005.7 |
| 20260504191605 | 59 | 25 | 4.3 | 10.4 | 0.00 | 0.00 | 0.00 | 57 | 1005.6 |
| 20260504190605 | 58 | 6 | 4.3 | 6.1 | 0.00 | 0.00 | 0.00 | 58 | 1005.7 |
| 20260504185704 | 57 | 351 | 5.2 | 8.7 | 0.00 | 0.00 | 0.00 | 59 | 1005.8 |
| 20260504184803 | 57 | 351 | 2.6 | 7.0 | 0.00 | 0.00 | 0.00 | 60 | 1005.8 |